Time,TemperatureF,DewpointF,PressureIn,WindDirection,WindDirectionDegrees,WindSpeedMPH,WindSpeedGustMPH,Humidity,HourlyPrecipIn,Conditions,Clouds,dailyrainin,SoftwareType,DateUTC
2013-01-23 00:03:00,7.0,-4.0,-100.00,WSW,240,11.0,16.0,58,0.00,,,-99.99,,2013-01-23 05:03:00,
2013-01-23 00:12:00,7.0,-4.0,-100.00,WSW,240,10.0,15.0,58,0.00,,,-99.99,,2013-01-23 05:12:00,
2013-01-23 00:22:00,7.0,-4.0,-100.00,SW,230,9.0,16.0,60,0.00,,,-99.99,,2013-01-23 05:22:00,
2013-01-23 00:33:00,7.0,-4.0,-100.00,SW,220,9.0,15.0,60,0.00,,,-99.99,,2013-01-23 05:33:00,
2013-01-23 00:43:00,7.0,-4.0,-100.00,West,260,13.0,18.0,60,0.00,,,-99.99,,2013-01-23 05:43:00,
2013-01-23 00:52:00,8.0,-4.0,-100.00,WSW,240,13.0,21.0,59,0.00,,,-99.99,,2013-01-23 05:52:00,
2013-01-23 01:03:00,7.0,-4.0,-100.00,SW,225,12.0,17.0,59,0.00,,,-99.99,,2013-01-23 06:03:00,
2013-01-23 01:12:00,8.0,-3.0,-100.00,SW,220,10.0,16.0,60,0.00,,,-99.99,,2013-01-23 06:12:00,
2013-01-23 01:22:00,8.0,-3.0,-100.00,WSW,245,12.0,17.0,60,0.00,,,-99.99,,2013-01-23 06:22:00,
2013-01-23 01:33:00,7.0,-4.0,-100.00,WSW,245,11.0,17.0,60,0.00,,,-99.99,,2013-01-23 06:33:00,
2013-01-23 01:43:00,8.0,-3.0,-100.00,WSW,250,12.0,16.0,61,0.00,,,-99.99,,2013-01-23 06:43:00,
2013-01-23 01:52:00,8.0,-3.0,-100.00,WSW,250,12.0,17.0,61,0.00,,,-99.99,,2013-01-23 06:52:00,
2013-01-23 02:02:00,8.0,-3.0,-100.00,WSW,245,12.0,16.0,61,0.00,,,-99.99,,2013-01-23 07:02:00,
2013-01-23 02:12:00,7.0,-3.0,-100.00,West,270,9.0,14.0,61,0.00,,,-99.99,,2013-01-23 07:12:00,
2013-01-23 02:22:00,7.0,-3.0,-100.00,WSW,245,10.0,14.0,62,0.00,,,-99.99,,2013-01-23 07:22:00,
2013-01-23 02:33:00,7.0,-3.0,-100.00,WSW,250,12.0,15.0,63,0.00,,,-99.99,,2013-01-23 07:33:00,
2013-01-23 02:42:00,7.0,-3.0,-100.00,WSW,255,10.0,14.0,63,0.00,,,-99.99,,2013-01-23 07:42:00,
2013-01-23 02:52:00,7.0,-2.0,-100.00,SW,235,9.0,14.0,65,0.00,,,-99.99,,2013-01-23 07:52:00,
2013-01-23 03:02:00,7.0,-2.0,-100.00,WSW,250,10.0,15.0,65,0.00,,,-99.99,,2013-01-23 08:02:00,
2013-01-23 03:13:00,7.0,-2.0,-100.00,WSW,250,11.0,16.0,65,0.00,,,-99.99,,2013-01-23 08:13:00,
2013-01-23 03:22:00,7.0,-2.0,-100.00,WSW,255,9.0,15.0,65,0.00,,,-99.99,,2013-01-23 08:22:00,
2013-01-23 03:33:00,7.0,-2.0,-100.00,WSW,250,9.0,15.0,66,0.00,,,-99.99,,2013-01-23 08:33:00,
2013-01-23 03:43:00,7.0,-2.0,-100.00,West,265,7.0,12.0,66,0.00,,,-99.99,,2013-01-23 08:43:00,
2013-01-23 03:52:00,7.0,-2.0,-100.00,West,260,10.0,14.0,66,0.00,,,-99.99,,2013-01-23 08:52:00,
2013-01-23 04:03:00,7.0,-2.0,-100.00,SW,235,6.0,11.0,67,0.00,,,-99.99,,2013-01-23 09:03:00,
2013-01-23 04:12:00,7.0,-2.0,-100.00,SW,235,9.0,13.0,66,0.00,,,-99.99,,2013-01-23 09:12:00,
2013-01-23 04:22:00,7.0,-2.0,-100.00,WSW,250,5.0,10.0,67,0.00,,,-99.99,,2013-01-23 09:22:00,
2013-01-23 04:33:00,7.0,-2.0,-100.00,WSW,255,7.0,10.0,67,0.00,,,-99.99,,2013-01-23 09:33:00,
2013-01-23 04:43:00,7.0,-2.0,-100.00,WSW,250,7.0,12.0,68,0.00,,,-99.99,,2013-01-23 09:43:00,
2013-01-23 04:52:00,6.0,-2.0,-100.00,West,260,7.0,11.0,68,0.00,,,-99.99,,2013-01-23 09:52:00,
2013-01-23 05:03:00,6.0,-2.0,-100.00,West,265,7.0,12.0,68,0.00,,,-99.99,,2013-01-23 10:03:00,
2013-01-23 05:12:00,6.0,-2.0,-100.00,West,270,7.0,11.0,68,0.00,,,-99.99,,2013-01-23 10:12:00,
2013-01-23 05:23:00,6.0,-1.0,-100.00,WSW,255,7.0,11.0,69,0.00,,,-99.99,,2013-01-23 10:23:00,
2013-01-23 05:33:00,6.0,-1.0,-100.00,WSW,255,6.0,10.0,70,0.00,,,-99.99,,2013-01-23 10:33:00,
2013-01-23 05:43:00,7.0,-1.0,-100.00,West,275,6.0,9.0,70,0.00,,,-99.99,,2013-01-23 10:43:00,
2013-01-23 05:52:00,7.0,-1.0,-100.00,WSW,255,6.0,10.0,71,0.00,,,-99.99,,2013-01-23 10:52:00,
2013-01-23 06:03:00,7.0,-1.0,-100.00,WSW,240,4.0,7.0,71,0.00,,,-99.99,,2013-01-23 11:03:00,
2013-01-23 06:12:00,7.0,-1.0,-100.00,West,260,4.0,7.0,71,0.00,,,-99.99,,2013-01-23 11:12:00,
2013-01-23 06:23:00,7.0,0.0,-100.00,NW,310,3.0,9.0,72,0.00,,,-99.99,,2013-01-23 11:23:00,
2013-01-23 06:34:00,7.0,0.0,-100.00,West,280,5.0,7.0,72,0.00,,,-99.99,,2013-01-23 11:34:00,
2013-01-23 06:43:00,7.0,0.0,-100.00,WSW,250,5.0,8.0,72,0.00,,,-99.99,,2013-01-23 11:43:00,
2013-01-23 06:53:00,7.0,0.0,-100.00,WSW,245,5.0,9.0,73,0.00,,,-99.99,,2013-01-23 11:53:00,
2013-01-23 07:03:00,7.0,0.0,-100.00,SW,235,7.0,9.0,72,0.00,,,-99.99,,2013-01-23 12:03:00,
2013-01-23 07:13:00,7.0,0.0,-100.00,West,280,6.0,10.0,72,0.00,,,-99.99,,2013-01-23 12:13:00,
2013-01-23 07:22:00,7.0,0.0,-100.00,WSW,240,6.0,9.0,72,0.00,,,-99.99,,2013-01-23 12:22:00,
2013-01-23 07:33:00,7.0,0.0,-100.00,West,260,4.0,9.0,73,0.00,,,-99.99,,2013-01-23 12:33:00,
2013-01-23 07:43:00,7.0,0.0,-100.00,SW,215,6.0,9.0,72,0.00,,,-99.99,,2013-01-23 12:43:00,
2013-01-23 07:53:00,7.0,0.0,-100.00,SSW,210,7.0,9.0,73,0.00,,,-99.99,,2013-01-23 12:53:00,
2013-01-23 08:04:00,7.0,0.0,-100.00,SSW,210,7.0,11.0,72,0.00,,,-99.99,,2013-01-23 13:04:00,
2013-01-23 08:13:00,7.0,0.0,-100.00,SSW,210,8.0,11.0,72,0.00,,,-99.99,,2013-01-23 13:13:00,
2013-01-23 08:23:00,7.0,0.0,-100.00,SW,220,9.0,12.0,72,0.00,,,-99.99,,2013-01-23 13:23:00,
2013-01-23 08:33:00,8.0,0.0,-100.00,SSW,210,9.0,12.0,72,0.00,,,-99.99,,2013-01-23 13:33:00,
2013-01-23 08:42:00,7.0,0.0,-100.00,SSW,210,8.0,11.0,72,0.00,,,-99.99,,2013-01-23 13:42:00,
2013-01-23 08:52:00,8.0,0.0,-100.00,SW,215,9.0,13.0,71,0.00,,,-99.99,,2013-01-23 13:52:00,
2013-01-23 09:03:00,8.0,0.0,-100.00,SSW,210,9.0,14.0,70,0.00,,,-99.99,,2013-01-23 14:03:00,
2013-01-23 09:12:00,8.0,0.0,-100.00,SW,220,12.0,15.0,69,0.00,,,-99.99,,2013-01-23 14:12:00,
2013-01-23 09:23:00,8.0,0.0,-100.00,SW,215,9.0,13.0,69,0.00,,,-99.99,,2013-01-23 14:23:00,
2013-01-23 09:33:00,8.0,0.0,-100.00,SSW,205,9.0,13.0,70,0.00,,,-99.99,,2013-01-23 14:33:00,
2013-01-23 09:43:00,8.0,0.0,-100.00,SW,220,8.0,12.0,69,0.00,,,-99.99,,2013-01-23 14:43:00,
2013-01-23 09:53:00,9.0,1.0,-100.00,SSW,205,9.0,13.0,69,0.00,,,-99.99,,2013-01-23 14:53:00,
2013-01-23 10:03:00,9.0,1.0,-100.00,SW,220,7.0,12.0,69,0.00,,,-99.99,,2013-01-23 15:03:00,
2013-01-23 10:12:00,9.0,1.0,-100.00,SSW,205,7.0,12.0,68,0.00,,,-99.99,,2013-01-23 15:12:00,
2013-01-23 10:23:00,10.0,1.0,-100.00,South,175,7.0,14.0,67,0.00,,,-99.99,,2013-01-23 15:23:00,
2013-01-23 10:33:00,10.0,1.0,-100.00,SW,220,10.0,13.0,66,0.00,,,-99.99,,2013-01-23 15:33:00,
2013-01-23 10:43:00,10.0,1.0,-100.00,SW,225,9.0,13.0,65,0.00,,,-99.99,,2013-01-23 15:43:00,
2013-01-23 10:53:00,11.0,2.0,-100.00,SW,235,8.0,14.0,66,0.00,,,-99.99,,2013-01-23 15:53:00,
2013-01-23 11:03:00,11.0,1.0,-100.00,SW,215,12.0,15.0,65,0.00,,,-99.99,,2013-01-23 16:03:00,
2013-01-23 11:12:00,11.0,1.0,-100.00,SW,220,10.0,16.0,64,0.00,,,-99.99,,2013-01-23 16:12:00,
2013-01-23 11:23:00,11.0,1.0,-100.00,SW,215,11.0,16.0,63,0.00,,,-99.99,,2013-01-23 16:23:00,
2013-01-23 11:33:00,12.0,2.0,-100.00,SW,215,11.0,16.0,63,0.00,,,-99.99,,2013-01-23 16:33:00,
2013-01-23 11:42:00,12.0,2.0,-100.00,SSW,210,12.0,16.0,63,0.00,,,-99.99,,2013-01-23 16:42:00,
2013-01-23 11:52:00,13.0,3.0,-100.00,SSW,210,7.0,16.0,63,0.00,,,-99.99,,2013-01-23 16:52:00,
2013-01-23 12:03:00,13.0,2.0,-100.00,SW,215,13.0,17.0,61,0.00,,,-99.99,,2013-01-23 17:03:00,
2013-01-23 12:12:00,13.0,2.0,-100.00,SW,230,13.0,19.0,61,0.00,,,-99.99,,2013-01-23 17:12:00,
2013-01-23 12:23:00,14.0,2.0,-100.00,SSW,195,14.0,19.0,60,0.00,,,-99.99,,2013-01-23 17:23:00,
2013-01-23 12:33:00,14.0,3.0,-100.00,SSW,205,11.0,19.0,60,0.00,,,-99.99,,2013-01-23 17:33:00,
2013-01-23 12:42:00,14.0,3.0,-100.00,SSW,200,12.0,19.0,60,0.00,,,-99.99,,2013-01-23 17:42:00,
2013-01-23 12:53:00,15.0,3.0,-100.00,SSW,200,14.0,18.0,58,0.00,,,-99.99,,2013-01-23 17:53:00,
2013-01-23 13:03:00,15.0,3.0,-100.00,SSW,205,12.0,16.0,58,0.00,,,-99.99,,2013-01-23 18:03:00,
2013-01-23 13:12:00,15.0,2.0,-100.00,SW,225,14.0,17.0,57,0.00,,,-99.99,,2013-01-23 18:12:00,
2013-01-23 13:23:00,15.0,2.0,-100.00,SW,225,14.0,20.0,57,0.00,,,-99.99,,2013-01-23 18:23:00,
2013-01-23 13:33:00,15.0,3.0,-100.00,SSW,205,10.0,19.0,57,0.00,,,-99.99,,2013-01-23 18:33:00,
2013-01-23 13:43:00,15.0,2.0,-100.00,SW,225,11.0,20.0,56,0.00,,,-99.99,,2013-01-23 18:43:00,
2013-01-23 13:53:00,15.0,2.0,-100.00,SW,220,12.0,17.0,55,0.00,,,-99.99,,2013-01-23 18:53:00,
2013-01-23 14:03:00,16.0,3.0,-100.00,SSW,205,9.0,18.0,55,0.00,,,-99.99,,2013-01-23 19:03:00,
2013-01-23 14:13:00,16.0,3.0,-100.00,SSW,210,12.0,21.0,55,0.00,,,-99.99,,2013-01-23 19:13:00,
2013-01-23 14:23:00,16.0,2.0,-100.00,SW,215,14.0,20.0,53,0.00,,,-99.99,,2013-01-23 19:23:00,
2013-01-23 14:33:00,16.0,2.0,-100.00,SSW,200,10.0,17.0,53,0.00,,,-99.99,,2013-01-23 19:33:00,
2013-01-23 14:43:00,16.0,2.0,-100.00,SSW,205,14.0,19.0,52,0.00,,,-99.99,,2013-01-23 19:43:00,
2013-01-23 14:53:00,17.0,1.0,-100.00,SW,215,16.0,21.0,51,0.00,,,-99.99,,2013-01-23 19:53:00,
2013-01-23 15:03:00,16.0,0.0,-100.00,SW,225,14.0,21.0,49,0.00,,,-99.99,,2013-01-23 20:03:00,
2013-01-23 15:13:00,17.0,0.0,-100.00,WSW,245,11.0,17.0,48,0.00,,,-99.99,,2013-01-23 20:13:00,
2013-01-23 15:23:00,17.0,0.0,-100.00,WSW,245,10.0,18.0,48,0.00,,,-99.99,,2013-01-23 20:23:00,
2013-01-23 15:33:00,17.0,0.0,-100.00,SSW,210,10.0,21.0,48,0.00,,,-99.99,,2013-01-23 20:33:00,
2013-01-23 15:43:00,17.0,0.0,-100.00,SW,220,13.0,18.0,47,0.00,,,-99.99,,2013-01-23 20:43:00,
2013-01-23 15:53:00,17.0,0.0,-100.00,SW,225,14.0,19.0,47,0.00,,,-99.99,,2013-01-23 20:53:00,
2013-01-23 16:03:00,17.0,-1.0,-100.00,SSW,210,13.0,19.0,46,0.00,,,-99.99,,2013-01-23 21:03:00,
2013-01-23 16:12:00,17.0,-1.0,-100.00,SW,215,17.0,20.0,46,0.00,,,-99.99,,2013-01-23 21:12:00,
2013-01-23 16:23:00,17.0,0.0,-100.00,SSW,205,14.0,20.0,46,0.00,,,-99.99,,2013-01-23 21:23:00,
2013-01-23 16:33:00,17.0,0.0,-100.00,SW,230,13.0,20.0,48,0.00,,,-99.99,,2013-01-23 21:33:00,
2013-01-23 16:43:00,17.0,0.0,-100.00,SW,225,13.0,18.0,47,0.00,,,-99.99,,2013-01-23 21:43:00,
2013-01-23 16:52:00,17.0,0.0,-100.00,SSW,205,13.0,19.0,48,0.00,,,-99.99,,2013-01-23 21:52:00,
2013-01-23 17:03:00,17.0,0.0,-100.00,SW,215,16.0,19.0,48,0.00,,,-99.99,,2013-01-23 22:03:00,
2013-01-23 17:12:00,17.0,1.0,-100.00,SW,215,14.0,17.0,49,0.00,,,-99.99,,2013-01-23 22:12:00,
2013-01-23 17:23:00,17.0,1.0,-100.00,SSW,210,11.0,17.0,49,0.00,,,-99.99,,2013-01-23 22:23:00,
2013-01-23 17:33:00,17.0,1.0,-100.00,SW,220,14.0,19.0,50,0.00,,,-99.99,,2013-01-23 22:33:00,
2013-01-23 17:42:00,17.0,1.0,-100.00,SW,215,14.0,17.0,50,0.00,,,-99.99,,2013-01-23 22:42:00,
2013-01-23 17:53:00,16.0,2.0,-100.00,SSW,210,11.0,17.0,51,0.00,,,-99.99,,2013-01-23 22:53:00,
2013-01-23 18:03:00,16.0,2.0,-100.00,SSW,210,13.0,17.0,52,0.00,,,-99.99,,2013-01-23 23:03:00,
2013-01-23 18:13:00,16.0,2.0,-100.00,SSW,205,11.0,16.0,54,0.00,,,-99.99,,2013-01-23 23:13:00,
2013-01-23 18:23:00,16.0,3.0,-100.00,SSW,205,9.0,15.0,55,0.00,,,-99.99,,2013-01-23 23:23:00,
2013-01-23 18:33:00,16.0,3.0,-100.00,SSW,210,10.0,14.0,56,0.00,,,-99.99,,2013-01-23 23:33:00,
2013-01-23 18:43:00,16.0,3.0,-100.00,SSW,210,12.0,15.0,57,0.00,,,-99.99,,2013-01-23 23:43:00,
2013-01-23 18:53:00,16.0,4.0,-100.00,SSW,205,9.0,14.0,57,0.00,,,-99.99,,2013-01-23 23:53:00,
2013-01-23 19:03:00,16.0,4.0,-100.00,SW,215,10.0,15.0,58,0.00,,,-99.99,,2013-01-24 00:03:00,
2013-01-23 19:12:00,16.0,4.0,-100.00,SW,215,10.0,15.0,58,0.00,,,-99.99,,2013-01-24 00:12:00,
2013-01-23 19:22:00,16.0,4.0,-100.00,SW,215,10.0,15.0,59,0.00,,,-99.99,,2013-01-24 00:22:00,
2013-01-23 19:33:00,16.0,5.0,-100.00,SSW,205,9.0,13.0,60,0.00,,,-99.99,,2013-01-24 00:33:00,
2013-01-23 19:42:00,16.0,5.0,-100.00,SW,215,10.0,13.0,61,0.00,,,-99.99,,2013-01-24 00:42:00,
2013-01-23 19:53:00,16.0,6.0,-100.00,SW,220,9.0,16.0,63,0.00,,,-99.99,,2013-01-24 00:53:00,
2013-01-23 20:03:00,16.0,6.0,-100.00,SW,225,13.0,16.0,64,0.00,,,-99.99,,2013-01-24 01:03:00,
2013-01-23 20:12:00,16.0,7.0,-100.00,SW,215,7.0,16.0,66,0.00,,,-99.99,,2013-01-24 01:12:00,
2013-01-23 20:23:00,16.0,7.0,-100.00,SW,215,15.0,18.0,66,0.00,,,-99.99,,2013-01-24 01:23:00,
2013-01-23 20:33:00,16.0,7.0,-100.00,SSW,210,10.0,16.0,69,0.00,,,-99.99,,2013-01-24 01:33:00,
2013-01-23 20:42:00,16.0,8.0,-100.00,SW,220,11.0,17.0,71,0.00,,,-99.99,,2013-01-24 01:42:00,
2013-01-23 20:52:00,16.0,8.0,-100.00,SW,215,9.0,14.0,72,0.00,,,-99.99,,2013-01-24 01:52:00,
2013-01-23 21:03:00,15.0,8.0,-100.00,SSW,210,11.0,19.0,72,0.00,,,-99.99,,2013-01-24 02:03:00,
2013-01-23 21:12:00,15.0,9.0,-100.00,SW,215,12.0,17.0,74,0.00,,,-99.99,,2013-01-24 02:12:00,
2013-01-23 21:22:00,15.0,9.0,-100.00,SW,220,9.0,16.0,74,0.00,,,-99.99,,2013-01-24 02:22:00,
2013-01-23 21:33:00,15.0,9.0,-100.00,SW,215,11.0,16.0,76,0.00,,,-99.99,,2013-01-24 02:33:00,
2013-01-23 21:42:00,15.0,9.0,-100.00,SW,215,11.0,16.0,76,0.00,,,-99.99,,2013-01-24 02:42:00,
2013-01-23 21:52:00,15.0,9.0,-100.00,SW,215,11.0,16.0,76,0.00,,,-99.99,,2013-01-24 02:52:00,
2013-01-23 22:03:00,15.0,10.0,-100.00,SSW,195,9.0,14.0,78,0.00,,,-99.99,,2013-01-24 03:03:00,
2013-01-23 22:12:00,15.0,10.0,-100.00,SSW,210,9.0,13.0,79,0.00,,,-99.99,,2013-01-24 03:12:00,
2013-01-23 22:22:00,15.0,10.0,-100.00,SW,215,7.0,14.0,80,0.00,,,-99.99,,2013-01-24 03:22:00,
2013-01-23 22:33:00,15.0,11.0,-100.00,SSW,205,9.0,13.0,80,0.00,,,-99.99,,2013-01-24 03:33:00,
2013-01-23 22:43:00,15.0,11.0,-100.00,SSW,210,9.0,13.0,81,0.00,,,-99.99,,2013-01-24 03:43:00,
2013-01-23 22:52:00,15.0,11.0,-100.00,SSW,205,6.0,11.0,82,0.55,,,-99.99,,2013-01-24 03:52:00,
2013-01-23 23:03:00,15.0,11.0,-100.00,SSW,210,6.0,9.0,84,2.24,,,-99.99,,2013-01-24 04:03:00,
2013-01-23 23:12:00,15.0,12.0,-100.00,SW,225,5.0,9.0,86,0.55,,,-99.99,,2013-01-24 04:12:00,
2013-01-23 23:22:00,15.0,12.0,-100.00,SSW,210,6.0,7.0,86,2.24,,,-99.99,,2013-01-24 04:22:00,
2013-01-23 23:33:00,15.0,12.0,-100.00,SW,220,6.0,7.0,88,0.55,,,-99.99,,2013-01-24 04:33:00,
2013-01-23 23:42:00,15.0,13.0,-100.00,SSW,210,4.0,6.0,88,1.69,,,-99.99,,2013-01-24 04:42:00,
2013-01-23 23:52:00,15.0,13.0,-100.00,SW,220,4.0,6.0,89,2.24,,,-99.99,,2013-01-24 04:52:00,